Wind_Speed
33 35 41 45 47 50 52 31 7 26 41 16 6 12 7 14 17 18 11 12 18 10 8 10 11 9 4 4 3 12 6 5 10 13 5 6 12 10 15 6 7 6 3 6
31 33 42 46 47 49 46 20 10 34 47 10 9 5 12 19 19 18 13 12 8 6 10 6 6 6 3 4 7 2 6 6 7 6 7 6 8 8 9 5 3 8 7 3
33 31 41 48 49 46 48 15 5 14 29 23 21 15 15 15 26 22 15 9 12 12 9 1 7 9 5 4 4 1 1 4 8 5 3 7 16 8 9 10 7 10 11 11
18 33 38 48 48 50 43 18 6 11 9 19 18 18 16 20 14 22 19 11 14 12 10 11 6 8 9 8 6 4 4 8 4 6 1 3 2 5 9 12 11 12 11 12
21 25 29 46 49 47 50 13 6 15 12 29 27 19 18 26 24 23 23 11 11 9 7 11 9 10 8 8 7 5 3 3 4 3 2 4 8 11 11 14 14 15 13 15
22 26 29 46 52 49 22 18 22 19 17 19 18 21 24 26 22 19 27 18 14 10 6 4 5 2 2 2 7 8 6 5 5 9 6 6 9 15 17 18 16 13 14 12
22 21 26 31 51 50 28 29 27 8 8 15 23 24 25 25 27 16 18 22 15 5 5 9 6 2 3 6 6 5 7 9 4 4 4 6 3 2 5 7 10 8 7 9
23 24 25 7 44 49 46 25 23 13 2 22 23 23 23 27 28 17 20 15 11 15 6 7 5 4 3 7 8 8 8 7 3 4 9 9 7 9 5 6 8 7 6 2
20 21 25 32 20 53 49 32 32 19 4 6 24 21 33 9 7 1 17 13 19 20 9 7 7 7 8 9 8 7 6 6 6 5 5 6 3 6 6 2 10 8 7 4
18 19 22 25 24 41 50 44 35 23 8 9 13 19 23 21 12 5 11 12 8 15 7 8 9 10 13 9 11 10 8 6 8 8 4 5 2 11 4 3 1 10 9 6
15 16 21 27 28 24 39 38 42 38 13 12 22 19 34 27 25 10 16 8 4 8 10 7 5 5 8 7 11 13 12 10 7 9 6 9 15 14 6 3 7 8 8 7
13 13 18 31 32 28 35 30 41 41 27 11 21 16 27 16 31 24 33 12 24 14 8 7 5 5 7 11 8 13 11 8 8 9 7 3 16 9 18 8 7 8 9 12
13 13 15 25 26 28 40 34 39 34 10 10 12 17 23 25 21 26 14 13 26 16 22 11 4 5 6 8 12 11 14 12 9 7 9 8 11 14 8 9 9 12 17 21
16 14 12 19 22 18 38 34 40 32 13 4 2 15 19 23 25 23 21 19 15 15 11 10 4 7 7 8 7 11 11 10 10 13 12 6 10 12 13 16 19 22 22 21
18 15 12 22 18 21 34 41 41 42 22 5 6 10 16 15 17 18 14 19 19 17 10 5 6 10 4 3 3 9 15 12 8 7 12 15 17 16 16 16 16 17 20 23
19 16 14 12 22 21 28 16 36 38 32 10 3 4 9 17 18 18 16 14 16 14 9 12 6 2 7 6 8 17 18 16 17 18 18 18 18 18 17 20 21 23 26 25
15 12 11 10 26 23 20 12 31 33 27 9 5 2 9 19 20 13 14 13 13 11 7 5 5 9 6 4 10 5 9 15 19 19 18 20 18 18 19 21 25 24 23 22
13 17 19 15 22 21 14 18 42 36 14 8 4 3 5 9 9 7 5 8 10 5 6 8 7 6 3 6 13 20 21 21 20 19 20 21 19 19 22 22 22 24 24 24
12 16 16 13 18 10 12 41 37 27 9 8 7 9 5 11 7 10 5 4 3 3 4 6 7 6 7 9 14 14 13 13 15 17 18 16 16 18 19 21 22 25 27 25
16 15 7 5 10 23 28 17 6 5 3 5 6 16 5 17 11 4 5 3 4 4 5 6 4 10 21 17 15 13 15 15 15 16 16 13 13 13 14 16 18 20 23 23
16 10 6 12 36 20 5 5 5 5 4 5 13 24 14 16 8 5 5 4 4 5 5 6 5 5 12 22 18 12 9 12 13 12 10 7 8 10 11 13 15 17 19 21
17 11 18 16 6 4 4 4 3 4 6 12 16 25 28 12 13 5 5 3 4 5 10 5 4 5 10 16 16 12 8 10 10 8 6 6 6 7 9 12 14 16 17 19
18 6 9 5 3 4 7 8 3 8 11 32 35 15 12 8 6 5 4 5 5 13 4 4 5 9 18 17 15 11 9 10 9 7 6 4 3 5 8 12 14 15 17 17
5 6 4 4 6 6 7 8 9 15 31 39 35 21 8 9 4 4 5 5 4 5 6 7 6 19 18 14 12 11 11 10 10 9 6 3 4 8 13 15 16 18 19 21
4 5 5 6 4 8 8 18 27 33 42 39 23 16 13 5 5 3 5 7 5 8 6 5 18 23 19 17 14 12 12 11 12 9 6 10 14 16 17 17 18 18 18 19
4 5 3 9 10 9 14 22 30 42 39 31 14 5 6 3 5 6 7 7 6 5 6 18 21 20 17 16 14 11 9 9 11 12 11 11 16 18 18 18 19 19 19 20
6 4 8 8 11 13 20 32 39 40 32 8 5 6 6 7 5 7 6 4 3 12 18 22 20 20 19 17 14 9 7 8 10 11 12 15 18 17 17 18 16 18 19 20
Wind_Direction
233 216 210 202 201 198 194 187 192 180 185 171 205 207 205 200 210 217 243 268 224 213 204 210 206 191 79 152 264 201 215 255 180 202 93 306 196 203 202 220 215 222 305 277
231 217 213 204 203 196 188 193 159 177 179 183 209 203 215 205 197 203 206 215 212 219 192 180 189 136 122 176 202 290 161 235 150 192 185 199 227 212 228 213 283 218 209 254
231 221 213 202 200 197 194 173 147 164 178 191 199 190 190 202 210 200 209 203 198 176 167 256 171 150 146 142 133 39 262 243 210 267 356 229 208 202 223 225 216 239 251 245
236 230 216 208 199 197 187 180 187 182 174 192 202 194 177 189 187 205 198 189 216 191 181 193 189 155 147 152 157 181 246 222 252 136 144 341 231 223 211 241 243 245 252 270
243 232 226 197 199 195 203 166 154 173 160 189 200 194 195 189 191 188 195 191 201 197 195 203 193 190 193 176 173 174 185 201 182 297 245 265 260 250 248 252 257 266 268 270
238 228 220 211 197 195 198 211 183 177 195 185 185 198 193 197 185 206 199 197 185 199 178 219 60 1 311 148 187 187 200 179 211 242 209 257 264 245 247 251 245 248 260 282
237 240 220 211 196 197 194 206 178 174 181 191 195 187 195 189 195 171 190 188 167 128 116 116 113 88 151 195 209 229 197 209 186 241 168 240 243 285 304 292 284 265 268 267
245 242 219 261 198 202 201 206 172 191 225 193 202 187 196 195 195 174 170 174 185 165 181 177 170 190 201 213 214 202 228 203 189 205 221 264 245 200 204 211 246 207 243 285
232 231 239 234 206 203 206 203 192 185 127 223 183 184 185 161 139 111 145 131 153 170 195 192 194 184 193 183 171 250 176 262 181 191 221 230 102 116 162 164 260 207 158 186
227 236 233 235 226 204 206 208 192 185 169 252 218 192 183 175 151 124 143 144 146 178 188 197 202 213 192 177 186 183 183 195 213 212 236 267 211 157 146 235 198 158 174 178
220 232 223 223 215 196 209 203 208 203 189 193 212 213 181 171 163 167 156 115 173 182 190 196 183 224 198 213 197 176 187 191 202 220 204 244 209 163 207 115 142 181 206 235
213 236 227 216 229 201 195 180 185 192 192 197 194 188 196 202 185 168 166 174 168 170 180 202 190 193 196 209 208 175 206 205 200 198 212 162 173 177 217 249 251 210 253 275
223 239 230 214 223 202 194 190 182 184 140 137 159 164 171 180 181 176 159 188 188 190 188 175 181 190 210 200 225 198 215 258 247 226 214 193 200 221 201 210 236 262 277 283
224 232 239 215 215 201 202 194 192 186 136 116 72 164 160 163 164 169 173 175 171 178 181 163 177 203 197 217 230 225 232 205 230 243 239 223 236 236 243 256 269 276 276 276
222 227 235 201 197 203 199 207 181 179 162 129 120 150 162 183 169 161 148 165 165 172 175 205 211 220 157 252 280 238 220 223 217 248 246 249 255 262 263 268 272 272 277 281
214 218 229 201 194 195 178 164 182 176 179 119 133 130 126 182 187 191 189 181 190 192 186 202 206 81 208 214 227 227 230 231 234 249 249 258 268 269 268 277 280 279 281 280
230 235 242 227 205 192 215 174 162 165 160 116 113 101 132 135 133 131 158 167 173 189 174 200 152 195 210 250 240 212 222 235 230 243 255 259 257 262 272 278 282 283 282 281
220 213 221 222 200 206 199 148 156 155 133 114 111 108 131 142 136 101 122 156 156 166 159 172 178 151 199 243 237 237 248 244 240 238 248 259 267 273 279 278 281 284 283 286
204 196 210 211 192 192 156 155 162 149 117 132 167 149 150 148 112 124 135 144 128 136 187 193 179 182 214 232 221 221 232 239 243 243 247 257 263 273 279 283 284 285 288 289
186 175 175 222 170 151 146 136 111 113 129 198 161 132 141 151 139 108 106 123 133 177 189 139 237 239 232 229 230 243 251 246 238 240 245 261 272 279 286 290 290 286 287 288
168 168 215 161 144 144 147 130 152 130 127 174 150 147 131 148 128 121 133 142 167 195 175 206 216 240 219 225 231 231 229 213 215 223 233 243 265 280 289 292 292 292 291 288
174 170 147 153 158 116 144 148 145 181 137 151 144 144 126 108 127 120 152 128 190 200 147 181 239 208 199 176 182 178 178 177 176 185 213 239 253 279 295 296 295 293 292 293
141 145 180 203 171 133 173 160 182 142 156 146 145 134 133 129 112 116 139 152 190 132 161 219 238 194 181 176 174 181 185 190 200 203 206 218 254 299 308 302 300 290 285 284
155 146 204 234 170 195 206 197 156 139 147 143 143 139 125 137 128 141 127 141 131 193 213 221 197 175 169 172 178 185 192 192 187 178 173 205 289 303 310 311 310 305 295 293
158 186 208 206 193 163 183 128 129 140 139 138 122 108 118 107 112 152 124 173 211 215 219 183 171 177 176 176 182 189 195 198 195 205 237 270 295 298 304 311 309 301 294 292
161 218 195 166 146 134 131 135 134 145 140 127 104 108 141 141 141 158 190 183 216 193 182 164 162 166 171 171 173 173 176 189 211 228 254 273 286 291 295 304 308 299 289 290
198 208 200 184 129 143 151 152 148 153 142 131 129 122 165 125 186 183 176 204 131 152 167 160 164 170 177 182 183 194 215 232 242 253 257 267 279 287 293 297 298 296 293 291
Height
1417 1418 1428 1437 1448 1456 1466 1472 1474 1478 1488 1506 1500 1498 1500 1501 1501 1502 1501 1498 1490 1487 1489 1490 1488 1492 1493 1503 1502 1502 1497 1496 1509 1505 1498 1500 1495 1500 1504 1521 1523 1519 1525 1524
1409 1416 1424 1431 1440 1446 1453 1460 1466 1473 1477 1491 1491 1492 1495 1496 1497 1497 1498 1494 1491 1490 1491 1496 1493 1493 1506 1505 1503 1499 1500 1501 1519 1514 1507 1502 1502 1501 1500 1504 1514 1522 1533 1523
1406 1410 1418 1425 1432 1437 1451 1450 1458 1465 1471 1477 1485 1487 1487 1492 1492 1492 1493 1491 1495 1492 1494 1493 1498 1499 1505 1506 1505 1507 1506 1499 1504 1512 1506 1497 1506 1505 1503 1507 1522 1522 1516 1507
1395 1400 1405 1418 1424 1435 1437 1437 1441 1444 1452 1467 1475 1479 1480 1485 1484 1489 1490 1491 1489 1487 1494 1494 1497 1493 1503 1505 1508 1506 1503 1504 1502 1507 1509 1504 1506 1505 1505 1510 1509 1516 1513 1508
1393 1395 1394 1402 1416 1427 1433 1426 1433 1441 1443 1458 1472 1471 1471 1473 1477 1479 1484 1485 1488 1488 1491 1491 1494 1494 1496 1497 1504 1502 1504 1509 1507 1537 1510 1509 1512 1508 1509 1508 1506 1506 1505 1507
1389 1393 1396 1402 1409 1418 1416 1424 1428 1436 1442 1452 1459 1456 1458 1464 1474 1475 1478 1483 1490 1493 1494 1495 1495 1497 1496 1499 1500 1503 1505 1507 1512 1517 1510 1512 1519 1508 1505 1502 1500 1504 1509 1503
1384 1386 1391 1392 1399 1408 1414 1422 1423 1436 1437 1441 1441 1452 1456 1460 1466 1472 1476 1481 1486 1495 1497 1500 1503 1505 1501 1503 1503 1502 1504 1505 1510 1518 1515 1533 1501 1501 1500 1502 1498 1496 1503 1505
1380 1380 1380 1382 1394 1404 1411 1416 1423 1431 1432 1432 1441 1446 1452 1459 1463 1466 1476 1482 1486 1490 1500 1500 1504 1506 1507 1504 1504 1506 1504 1504 1517 1520 1514 1503 1497 1500 1503 1504 1500 1498 1502 1506
1375 1379 1381 1381 1386 1399 1407 1415 1420 1424 1431 1432 1434 1439 1444 1451 1461 1466 1472 1481 1486 1494 1497 1495 1500 1502 1497 1503 1507 1510 1507 1507 1516 1521 1518 1515 1493 1497 1500 1503 1505 1494 1503 1508
1372 1371 1375 1376 1384 1391 1400 1408 1415 1422 1429 1431 1435 1432 1434 1446 1456 1466 1473 1479 1486 1492 1491 1493 1491 1487 1483 1493 1499 1509 1511 1514 1518 1515 1518 1506 1493 1500 1504 1513 1505 1501 1502 1505
1369 1371 1372 1376 1383 1388 1397 1400 1411 1422 1426 1430 1431 1430 1434 1440 1448 1458 1469 1478 1484 1489 1489 1488 1485 1484 1481 1483 1483 1492 1499 1509 1512 1510 1517 1517 1493 1498 1506 1497 1499 1502 1504 1505
1366 1369 1372 1378 1383 1383 1390 1398 1408 1416 1427 1429 1430 1431 1432 1435 1445 1449 1459 1463 1471 1476 1480 1478 1480 1481 1476 1481 1487 1482 1494 1490 1496 1495 1492 1490 1490 1493 1495 1497 1499 1500 1502 1503
1366 1369 1373 1376 1377 1379 1386 1395 1400 1412 1418 1426 1428 1429 1431 1438 1444 1447 1454 1462 1466 1467 1468 1469 1473 1478 1475 1480 1480 1477 1484 1486 1486 1489 1485 1489 1492 1493 1494 1496 1498 1499 1499 1499
1366 1368 1368 1369 1373 1375 1384 1389 1397 1407 1414 1425 1427 1428 1431 1435 1443 1446 1450 1456 1462 1465 1468 1466 1471 1474 1473 1474 1474 1476 1477 1482 1488 1486 1485 1488 1491 1492 1493 1494 1495 1495 1496 1495
1362 1364 1368 1369 1369 1373 1382 1389 1393 1401 1409 1419 1427 1428 1429 1437 1441 1445 1450 1455 1460 1464 1467 1466 1468 1468 1474 1477 1477 1472 1476 1477 1484 1485 1486 1486 1487 1488 1489 1489 1490 1491 1491 1491
1362 1366 1366 1362 1366 1373 1374 1384 1388 1395 1402 1417 1432 1433 1433 1437 1442 1447 1451 1456 1461 1460 1463 1467 1467 1470 1475 1474 1470 1471 1473 1474 1477 1480 1483 1484 1485 1486 1487 1487 1487 1486 1486 1485
1347 1348 1351 1360 1366 1369 1374 1374 1373 1385 1395 1408 1428 1432 1432 1440 1444 1447 1452 1456 1459 1463 1464 1467 1471 1473 1474 1470 1468 1468 1468 1470 1475 1477 1481 1482 1482 1482 1484 1483 1482 1481 1481 1481
1356 1360 1362 1366 1367 1369 1371 1371 1380 1388 1397 1402 1415 1430 1434 1440 1442 1448 1455 1459 1461 1462 1465 1470 1469 1473 1473 1470 1464 1466 1469 1470 1472 1475 1477 1478 1478 1478 1480 1480 1479 1477 1477 1477
1356 1358 1361 1364 1366 1365 1363 1369 1378 1382 1391 1400 1406 1414 1428 1437 1439 1447 1457 1456 1454 1463 1463 1463 1464 1463 1462 1459 1460 1460 1462 1465 1466 1468 1471 1473 1474 1474 1475 1475 1476 1474 1474 1473
1354 1357 1357 1355 1355 1362 1367 1374 1376 1385 1391 1394 1393 1403 1419 1426 1432 1446 1451 1451 1456 1461 1460 1464 1461 1451 1453 1455 1455 1456 1458 1461 1464 1466 1468 1470 1471 1471 1472 1472 1472 1471 1471 1470
1348 1352 1354 1353 1358 1360 1364 1369 1373 1382 1389 1388 1391 1400 1402 1422 1423 1437 1442 1448 1454 1455 1460 1461 1452 1443 1444 1447 1449 1452 1454 1455 1459 1462 1464 1465 1467 1468 1468 1469 1468 1467 1466 1465
1345 1347 1351 1351 1354 1356 1359 1364 1371 1369 1374 1381 1387 1396 1402 1417 1428 1439 1445 1445 1453 1451 1459 1458 1444 1433 1436 1439 1444 1448 1452 1454 1457 1458 1460 1462 1463 1463 1463 1464 1463 1462 1461 1459
1346 1348 1349 1351 1351 1349 1351 1354 1358 1355 1360 1371 1381 1397 1410 1421 1430 1437 1441 1450 1455 1453 1451 1443 1427 1427 1431 1437 1443 1447 1450 1452 1453 1455 1456 1457 1458 1458 1458 1458 1458 1457 1456 1454
1342 1342 1344 1342 1341 1341 1335 1327 1331 1337 1348 1364 1378 1389 1400 1413 1422 1429 1432 1435 1440 1440 1436 1424 1423 1425 1430 1435 1440 1444 1446 1448 1449 1451 1452 1453 1453 1453 1453 1453 1452 1450 1448 1447
1336 1339 1334 1334 1331 1329 1329 1329 1335 1344 1353 1361 1374 1387 1397 1407 1419 1418 1427 1435 1431 1422 1408 1413 1416 1422 1427 1432 1436 1439 1441 1443 1444 1446 1447 1447 1448 1448 1448 1447 1446 1444 1442 1441
1337 1337 1333 1329 1332 1329 1328 1330 1337 1347 1353 1362 1372 1387 1396 1402 1404 1410 1418 1416 1407 1401 1406 1410 1414 1420 1424 1429 1432 1435 1437 1438 1441 1442 1444 1444 1444 1443 1443 1442 1440 1438 1436 1435
1330 1328 1326 1320 1313 1323 1331 1337 1339 1346 1350 1357 1369 1379 1386 1393 1397 1398 1396 1397 1397 1402 1406 1409 1414 1418 1423 1427 1430 1432 1434 1436 1438 1439 1439 1439 1438 1438 1437 1436 1435 1433 1431 1429